Peoria, IL

4:31 PM CDT on May 24, 2018 (GMT -0500)
Greater Peoria Regional

Weather History for KPIA - December, 2013

Change the Weather History Date:

Tuesday, December 10, 2013

  Actual Average Record
Temperature  
Mean Temperature 14 °F 30 °F  
Max Temperature 26 °F 37 °F 64 °F (1889)
Min Temperature 2 °F 22 °F -10 °F (1977)
Degree Days  
Heating Degree Days 51 35  
Month to date heating degree days 378 333  
Since 1 July heating degree days 1560 1481  
Cooling Degree Days 0 0  
Month to date cooling degree days 0 0  
Year to date cooling degree days 1174 1039  
Moisture  
Dew Point 5 °F    
Average Humidity 63    
Maximum Humidity 79    
Minimum Humidity 46    
Precipitation  
Precipitation 0.00 in 0.09 in 1.48 in (1971)
Month to date precipitation 0.07 0.91  
Year to date precipitation 42.14 34.98  
Snow  
Snow 0.00 in 0.20 in 5.10 in (1989)
Month to date snowfall 0.6 1.9  
Since 1 July snowfall 1.2 3.0  
Snow Depth 0.00 in    
Sea Level Pressure  
Sea Level Pressure 30.24 in    
Wind  
Wind Speed 9 mph (WSW)    
Max Wind Speed 23 mph    
Max Gust Speed 33 mph    
Visibility 10 miles    
Events      
T = Trace of Precipitation, MM = Missing Value Source: NWS Daily Summary

Daily Weather History Graph

Daily Weather History Graph

Search for Another Location

Airport or City:

Astronomy

Dec. 10, 2013 Rise Set
Actual Time 7:11 AM CST 4:31 PM CST
Civil Twilight 6:41 AM CST 5:02 PM CST
Nautical Twilight 6:06 AM CST 5:36 PM CST
Astronomical Twilight 5:33 AM CST 6:09 PM CST
Moon 12:34 PM CST (12/10) 12:28 AM CST (12/10)
Length of Visible Light 10h 21m
Length of Day
9h 19m
Waxing Gibbous, 62% of the Moon is Illuminated
Dec 10
Waxing Gibbous
Dec 17
Full
Dec 25
Last Quarter
Jan 1
New
Jan 7
First Quarter

Hourly Weather History & Observations

Time (CST) Temp. Windchill Dew Point Humidity Pressure Visibility Wind Dir Wind Speed Gust Speed Precip Events Conditions
12:54 AM 3.9 °F -5.3 °F -2.9 °F 73% 30.27 in 10.0 mi SSW 4.6 mph - N/A   Clear
1:54 AM 3.0 °F -6.4 °F -4.0 °F 73% 30.28 in 10.0 mi SW 4.6 mph - N/A   Clear
2:54 AM 3.0 °F -9.3 °F -2.9 °F 76% 30.25 in 10.0 mi SSW 6.9 mph - N/A   Clear
3:54 AM 6.1 °F -6.8 °F -0.0 °F 76% 30.21 in 10.0 mi SSW 8.1 mph - N/A   Clear
4:54 AM 8.1 °F -7.0 °F 1.0 °F 73% 30.20 in 10.0 mi SW 11.5 mph - N/A   Mostly Cloudy
5:54 AM 10.0 °F -8.1 °F 1.9 °F 70% 30.14 in 10.0 mi SSW 18.4 mph 24.2 mph N/A   Overcast
6:54 AM 10.0 °F -7.1 °F 1.9 °F 70% 30.14 in 10.0 mi SSW 16.1 mph - N/A   Clear
7:54 AM 12.0 °F -2.0 °F 1.9 °F 64% 30.15 in 10.0 mi SW 11.5 mph - N/A   Partly Cloudy
8:54 AM 18.0 °F 4.2 °F 3.0 °F 52% 30.17 in 10.0 mi WSW 13.8 mph 20.7 mph N/A   Scattered Clouds
9:54 AM 21.9 °F 6.5 °F 8.1 °F 55% 30.19 in 10.0 mi West 20.7 mph 29.9 mph N/A   Clear
10:54 AM 23.0 °F 9.2 °F 9.0 °F 55% 30.19 in 10.0 mi West 17.3 mph 27.6 mph N/A   Clear
11:54 AM 25.0 °F 11.3 °F 10.9 °F 55% 30.20 in 10.0 mi West 18.4 mph 25.3 mph N/A   Clear
12:54 PM 26.1 °F 14.0 °F 8.1 °F 47% 30.21 in 10.0 mi WNW 15.0 mph 27.6 mph N/A   Clear
1:54 PM 25.0 °F 10.6 °F 6.1 °F 45% 30.24 in 10.0 mi West 20.7 mph 27.6 mph N/A   Clear
2:54 PM 25.0 °F 13.1 °F 6.1 °F 45% 30.25 in 10.0 mi WNW 13.8 mph 25.3 mph N/A   Clear
3:54 PM 24.1 °F 11.0 °F 6.1 °F 46% 30.28 in 10.0 mi West 16.1 mph 25.3 mph N/A   Clear
4:54 PM 21.0 °F 16.2 °F 5.0 °F 50% 30.27 in 10.0 mi WNW 3.5 mph - N/A   Clear
5:54 PM 19.9 °F - 6.1 °F 55% 30.29 in 10.0 mi Calm Calm - N/A   Clear
6:54 PM 18.0 °F - 6.1 °F 60% 30.31 in 10.0 mi Calm Calm - N/A   Clear
7:54 PM 19.0 °F - 6.1 °F 57% 30.32 in 10.0 mi Calm Calm - N/A   Clear
8:54 PM 19.0 °F - 6.1 °F 57% 30.32 in 10.0 mi Calm Calm - N/A   Mostly Cloudy
9:54 PM 18.0 °F - 10.0 °F 71% 30.33 in 10.0 mi Calm Calm - N/A   Overcast
10:54 PM 19.0 °F - 10.9 °F 71% 30.35 in 10.0 mi Calm Calm - N/A   Overcast
11:54 PM 21.0 °F 16.2 °F 10.0 °F 63% 30.32 in 10.0 mi East 3.5 mph - N/A   Overcast